Location: Newark
(32.8494°S, 27.4381°E)
Time: 18:05:17
(UTC+00:00)

ISS - Visible Passes

Search period start: 18 July 2019 00:00
Search period end: 28 July 2019 00:00
Orbit: 409 x 418 km, 51.6° (Epoch: 19 July)

Date Brightness Start Highest point End Pass type
(mag) Time Alt. Az. Time Alt. Az. Time Alt. Az.
20 Jul -0.7 04:38:00 10° N 04:40:37 21° NE 04:43:16 10° ESE visible
21 Jul -0.2 03:50:35 10° NE 03:51:31 11° NE 03:52:28 10° ENE visible
22 Jul -3.6 04:35:11 10° NW 04:38:31 77° NE 04:41:54 10° SE visible
23 Jul -2.1 03:46:12 10° NNW 03:49:17 35° NE 03:52:25 10° ESE visible
24 Jul -1.1 02:59:21 17° NE 03:00:07 18° NE 03:02:28 10° E visible
24 Jul -2.9 04:33:33 10° WNW 04:36:36 32° SW 04:39:40 10° SSE visible
25 Jul -3.8 03:46:19 42° WNW 03:47:12 62° SW 03:50:34 10° SE visible
26 Jul -1.4 02:59:55 21° ESE 02:59:55 21° ESE 03:01:14 10° SE visible
26 Jul -1.7 04:33:02 10° WSW 04:34:52 14° SSW 04:36:42 10° S visible
27 Jul -2.0 03:46:06 20° SSW 03:46:06 20° SSW 03:48:00 10° SSE visible
